Location: Sternwarte ZA, Rosenfeld-Brittheim
(48.2889°N, 8.6789°E)
Time: 05:16:06
(UTC+01:00)

OTV 5 (USA 277) - Visible Passes

Search period start: 24 February 2019 00:00
Search period end: 06 March 2019 00:00
Orbit: 342 x 346 km, 54.5° (Epoch: 17 February)

Date Brightness Start Highest point End Pass type
(mag) Time Alt. Az. Time Alt. Az. Time Alt. Az.
24 Feb ? 20:00:34 10° SW 20:01:57 24° SW 20:01:57 24° SW visible
25 Feb ? 18:50:12 10° S 18:52:23 20° SE 18:53:53 14° E visible
25 Feb ? 20:24:12 10° WSW 20:25:20 21° W 20:25:20 21° W visible
26 Feb ? 19:13:01 10° SW 19:15:51 53° SE 19:17:09 26° ENE visible
26 Feb ? 20:48:13 10° W 20:48:36 13° W 20:48:36 13° W visible
27 Feb ? 19:36:37 10° WSW 19:39:29 60° NNW 19:40:19 39° NE visible
28 Feb ? 20:00:38 10° W 20:03:17 32° NNW 20:03:23 32° NNW visible
01 Mar ? 18:49:03 10° WSW 18:51:55 62° NNW 18:54:48 10° NE visible
01 Mar ? 20:24:46 10° WNW 20:26:23 21° NW 20:26:23 21° NW visible
02 Mar ? 19:13:03 10° W 19:15:43 33° NNW 19:17:54 14° NE visible
02 Mar ? 20:48:47 10° NW 20:49:20 13° NW 20:49:20 13° NW visible
03 Mar ? 19:37:11 10° WNW 19:39:38 24° N 19:40:48 19° NNE visible
04 Mar ? 20:01:13 10° NW 20:03:36 23° N 20:03:41 23° N visible
05 Mar ? 18:49:36 10° WNW 18:52:03 24° N 18:54:30 10° NE visible
05 Mar ? 20:25:00 10° NW 20:26:32 22° NNW 20:26:32 22° NNW visible
